Regional Weather Roundup
Issued by NWS Charleston, WV

Home | Current Version | Previous Version | Graphics & Text | Print | Product List | Glossary On
Versions: 1 2 3 4 5 6 7 8 9 10 11 12 13 14 15 16 17 18 19 20 21 22 23 24 25 26 27 28 29 30 31 32 33 34 35 36 37 38 39 40 41 42 43 44 45 46 47 48 49 50
000
ASUS41 KRLX 210410
RWRRLX
West Virginia Regional Weather Roundup
National Weather Service Charleston WV
1200 AM EDT TUE OCT 21 2014

Note: "fair" indicates few or no clouds below 12,000 feet with no
significant weather and/or obstructions to visibility.

WVZ003-210500-
Northern Panhandle of West Virginia

CITY           SKY/WX    TMP DP  RH WIND       PRES   REMARKS
WHEELING       CLOUDY    51  46  83 SW8       29.87F
$$

WVZ009-210500-
Northwest West Virginia

CITY           SKY/WX    TMP DP  RH WIND       PRES   REMARKS
PARKERSBURG    PTCLDY    50  46  86 SW6       29.92S
$$

WVZ006-210500-
Western West Virginia

CITY           SKY/WX    TMP DP  RH WIND       PRES   REMARKS
HUNTINGTON     MOCLDY    51  48  89 S3        29.93S
$$

WVZ015-210500-
West Central West Virginia

CITY           SKY/WX    TMP DP  RH WIND       PRES   REMARKS
CHARLESTON     CLOUDY    50  49  96 CALM      29.93F
$$

WVZ022-031-210500-
North Central West Virginia

CITY           SKY/WX    TMP DP  RH WIND       PRES   REMARKS
CLARKSBURG     MOCLDY    51  46  83 S6        29.91F
MORGANTOWN     MOCLDY    53  45  74 S3        29.90F
$$

WVZ025-035-042-045-210500-
Southern West Virginia

CITY           SKY/WX    TMP DP  RH WIND       PRES   REMARKS
BECKLEY        MOCLDY    51  44  77 SW8       29.97F
LOGAN            N/A     54  48  82 SW6       29.95F
BLUEFIELD      CLOUDY    53  43  68 W9        29.99F
LEWISBURG      CLOUDY    49  46  90 CALM      29.96F
$$

WVZ047-210500-
Northern Mountains of West Virginia

CITY           SKY/WX    TMP DP  RH WIND       PRES   REMARKS
ELKINS         CLOUDY    48  47  96 S6        29.94F
$$

WVZ052-210500-
Eastern Panhandle of West Virginia

CITY           SKY/WX    TMP DP  RH WIND       PRES   REMARKS
MARTINSBURG    CLOUDY    52  48  86 CALM      29.91F
PETERSBURG     CLOUDY   N/A N/A N/A CALM      29.92F
$$



USA.gov is the U.S. government's official web portal to all federal, state and local government web resources and services.